Location: San Pelegr�n
(42.1868°N, 0.0079°E)
Time: 05:33:05
(UTC+00:00)

Cosmos 1703 - Pass Details

Date: 24 January 2020
Orbit: 524 x 541 km, 82.5° (Epoch: 17 February)

Event Time Altitude Azimuth Distance (km) Brightness Sun altitude
Rises 18:17:16 0° 181° (S) 2,680 7.0 -13.7°
Reaches altitude 10° 18:19:25 10° 179° (S) 1,795 6.1 -14.1°
Maximum altitude 18:23:21 71° 96° (E) 576 3.2 -14.8°
Drops below altitude 10° 18:27:19 10° 12° (NNE) 1,812 5.7 -15.5°
Enters shadow 18:28:47 - 11° (N) 2,415 6.4 -15.8°
